This is the latest recevied weather packets stored in our database for station/object KB0BS-13. If no packets are shown the sender has not sent any weather packets the latest 10 day(s).
| Time | Temp. | Humidity | Pressure | Rain* | Wind** | Luminosity | Snow |
|---|---|---|---|---|---|---|---|
| 1777967337 | 4.44° C | 81% | 1001.3 hPa | 0 mm | - | 0 W/m² | - |
| 1777967034 | 4.44° C | 82% | 1001.2 hPa | 0 mm | - | 0 W/m² | - |
| 1777966731 | 5° C | 81% | 1001.2 hPa | 0 mm | - | 0 W/m² | - |
| 1777966429 | 5° C | 78% | 1001 hPa | 0 mm | - | 0 W/m² | - |
| 1777966126 | 5° C | 79% | 1001 hPa | 0 mm | - | 0 W/m² | - |
| 1777965822 | 4.44° C | 80% | 1000.8 hPa | 0 mm | - | 0 W/m² | - |
| 1777965518 | 5° C | 78% | 1001 hPa | 0 mm | - | 0 W/m² | - |
| 1777965215 | 5° C | 78% | 1001 hPa | 0 mm | - | 0 W/m² | - |
| 1777964913 | 5.56° C | 75% | 1000.8 hPa | 0 mm | - | 0 W/m² | - |
| 1777964609 | 5.56° C | 76% | 1000.7 hPa | 0 mm | - | 0 W/m² | - |
| 1777964304 | 5.56° C | 74% | 1000.6 hPa | 0 mm | - | 0 W/m² | - |
| 1777964001 | 5.56° C | 74% | 1000.6 hPa | 0 mm | - | 0 W/m² | - |
| 1777963699 | 6.11° C | 71% | 1000.8 hPa | 0 mm | - | 0 W/m² | - |
| 1777963395 | 6.11° C | 71% | 1000.8 hPa | 0 mm | - | 0 W/m² | - |
| 1777963094 | 6.11° C | 72% | 1000.8 hPa | 0 mm | - | 0 W/m² | - |
| 1777962789 | 6.67° C | 70% | 1000.6 hPa | 0 mm | - | 0 W/m² | - |
| 1777962486 | 6.67° C | 71% | 1000.5 hPa | 0 mm | - | 0 W/m² | - |
| 1777962184 | 6.67° C | 71% | 1000.6 hPa | 0 mm | - | 0 W/m² | - |
| 1777961880 | 6.67° C | 71% | 1000.6 hPa | 0 mm | - | 0 W/m² | - |
| 1777961578 | 6.67° C | 71% | 1000.4 hPa | 0 mm | - | 0 W/m² | - |
| 1777961275 | 6.67° C | 71% | 1000.5 hPa | 0 mm | - | 0 W/m² | - |
| 1777960972 | 6.67° C | 70% | 1000.2 hPa | 0 mm | - | 0 W/m² | - |
| 1777960668 | 6.67° C | 70% | 1000.2 hPa | 0 mm | - | 0 W/m² | - |
| 1777960364 | 6.67° C | 71% | 1000.1 hPa | 0 mm | - | 0 W/m² | - |
| 1777960062 | 6.67° C | 73% | 1000.4 hPa | 0 mm | - | 0 W/m² | - |
* Rain latest hour (hover to see other rain measurements)
** Current wind speed in m/s (hover to see current wind gust speed)